TimeEDT,TemperatureF,Dew PointF,Humidity,Sea Level PressureIn,VisibilityMPH,Wind Direction,Wind SpeedMPH,Gust SpeedMPH,PrecipitationIn,Events,Conditions,WindDirDegrees,DateUTC
12:54 AM,55.9,44.1,64,29.86,-9999.0,Calm,Calm,-,N/A,,Unknown,0,2013-04-10 04:54:00
1:54 AM,55.0,46.0,72,29.84,-9999.0,Calm,Calm,-,N/A,,Unknown,0,2013-04-10 05:54:00
2:54 AM,55.9,46.9,72,29.84,-9999.0,NNE,8.1,-,N/A,,Unknown,30,2013-04-10 06:54:00
3:54 AM,57.0,44.1,62,29.88,-9999.0,Variable,5.8,-,N/A,,Unknown,0,2013-04-10 07:54:00
4:54 AM,54.0,45.0,72,29.89,-9999.0,Calm,Calm,-,N/A,,Unknown,0,2013-04-10 08:54:00
5:54 AM,52.0,45.0,77,29.90,-9999.0,Calm,Calm,-,N/A,,Unknown,0,2013-04-10 09:54:00
6:54 AM,50.0,45.0,83,29.92,-9999.0,Calm,Calm,-,N/A,,Unknown,0,2013-04-10 10:54:00
7:54 AM,53.1,46.0,77,29.95,-9999.0,North,3.5,-,N/A,,Unknown,360,2013-04-10 11:54:00
8:54 AM,57.9,46.0,65,29.94,-9999.0,Calm,Calm,-,N/A,,Unknown,0,2013-04-10 12:54:00
9:54 AM,66.9,48.9,52,29.92,-9999.0,Calm,Calm,-,N/A,,Unknown,0,2013-04-10 13:54:00
10:54 AM,68.0,50.0,52,29.92,-9999.0,Calm,Calm,-,N/A,,Unknown,0,2013-04-10 14:54:00
11:54 AM,72.0,52.0,49,29.92,-9999.0,NNE,3.5,-,N/A,,Unknown,20,2013-04-10 15:54:00
12:54 PM,73.0,52.0,48,29.90,-9999.0,Calm,Calm,-,N/A,,Unknown,0,2013-04-10 16:54:00
1:54 PM,77.0,53.1,43,29.88,-9999.0,Variable,3.5,-,N/A,,Unknown,0,2013-04-10 17:54:00
2:54 PM,75.9,55.0,48,29.86,-9999.0,Calm,Calm,-,N/A,,Unknown,0,2013-04-10 18:54:00
3:54 PM,75.9,54.0,46,29.82,-9999.0,Calm,Calm,-,N/A,,Unknown,0,2013-04-10 19:54:00
4:54 PM,73.9,51.1,45,29.82,-9999.0,Variable,3.5,-,N/A,,Unknown,0,2013-04-10 20:54:00
5:54 PM,70.0,50.0,49,29.81,-9999.0,SSE,8.1,-,N/A,,Unknown,150,2013-04-10 21:54:00
6:54 PM,60.1,57.9,93,29.87,-9999.0,Calm,Calm,-,0.34,,Unknown,0,2013-04-10 22:54:00
7:54 PM,61.0,57.0,87,29.79,-9999.0,SE,4.6,-,0.03,,Unknown,130,2013-04-10 23:54:00
8:54 PM,60.1,55.9,86,29.83,-9999.0,Calm,Calm,-,N/A,,Unknown,0,2013-04-11 00:54:00
9:54 PM,59.0,57.9,96,29.89,-9999.0,Calm,Calm,-,0.30,,Unknown,0,2013-04-11 01:54:00
10:54 PM,60.1,57.9,93,29.86,-9999.0,Calm,Calm,-,0.05,,Unknown,0,2013-04-11 02:54:00
11:54 PM,60.1,57.9,93,29.79,-9999.0,Calm,Calm,-,0.03,,Unknown,0,2013-04-11 03:54:00